| time (UTC) | temp F | wind direction | speed knots | gust knots | rain 1hr in | rain 24hr in | rain mn in | humidity % | barometer mb |
| 20260503200035 | 65 | 314 | 5.2 | 8.7 | 0.00 | 0.00 | 0.00 | 35 | 1016.7 |
| 20260503194533 | 65 | 345 | 3.5 | 8.7 | 0.00 | 0.00 | 0.00 | 35 | 1017.1 |
| 20260503193033 | 64 | 32 | 6.1 | 10.4 | 0.00 | 0.00 | 0.00 | 36 | 1017.5 |
| 20260503191531 | 65 | 62 | 2.6 | 6.1 | 0.00 | 0.00 | 0.00 | 42 | 1017.6 |
| 20260503190039 | 65 | 284 | 5.2 | 8.7 | 0.00 | 0.00 | 0.00 | 40 | 1017.8 |
| 20260503184530 | 64 | 60 | 3.5 | 7.8 | 0.00 | 0.00 | 0.00 | 41 | 1018.0 |
| 20260503183030 | 65 | 3 | 3.5 | 7.0 | 0.00 | 0.00 | 0.00 | 36 | 1018.2 |
| 20260503181533 | 64 | 352 | 0.9 | 7.8 | 0.00 | 0.00 | 0.00 | 42 | 1018.3 |
| 20260503180029 | 62 | 300 | 3.5 | 7.8 | 0.00 | 0.00 | 0.00 | 42 | 1018.6 |
| 20260503174530 | 61 | 288 | 3.5 | 7.0 | 0.00 | 0.00 | 0.00 | 45 | 1018.6 |
| 20260503173049 | 62 | 30 | 1.7 | 7.0 | 0.00 | 0.00 | 0.00 | 44 | 1018.8 |
| 20260503171531 | 61 | 275 | 1.7 | 7.8 | 0.00 | 0.00 | 0.00 | 43 | 1019.1 |
| 20260503081546 | 36 | 0 | 0.0 | 0.9 | 0.00 | 0.00 | 0.00 | 93 | 1017.6 |
| 20260503071537 | 37 | 0 | 0.0 | 0.9 | 0.00 | 0.00 | 0.00 | 88 | 1017.3 |
| 20260503054537 | 39 | 0 | 0.0 | 0.9 | 0.00 | 0.00 | 0.00 | 85 | 1017.0 |
| 20260503053031 | 39 | 0 | 0.0 | 0.0 | 0.00 | 0.00 | 0.00 | 84 | 1017.0 |
| 20260503051532 | 40 | 0 | 0.0 | 0.9 | 0.00 | 0.00 | 0.00 | 83 | 1016.9 |
| 20260503050030 | 40 | 82 | 0.0 | 0.9 | 0.00 | 0.00 | 0.00 | 81 | 1016.7 |
| 20260503044540 | 42 | 0 | 0.0 | 0.9 | 0.00 | 0.00 | 0.00 | 80 | 1016.6 |
| 20260503043029 | 42 | 0 | 0.0 | 0.9 | 0.00 | 0.00 | 0.00 | 78 | 1016.5 |
| 20260503041530 | 43 | 0 | 0.0 | 1.7 | 0.00 | 0.00 | 0.00 | 77 | 1016.5 |
| 20260503040031 | 43 | 0 | 0.0 | 0.9 | 0.00 | 0.00 | 0.00 | 75 | 1016.1 |
| 20260503034534 | 44 | 0 | 0.0 | 0.9 | 0.00 | 0.00 | 0.00 | 74 | 1016.0 |
| 20260503033032 | 45 | 75 | 0.0 | 1.7 | 0.00 | 0.00 | 0.00 | 72 | 1016.1 |
| 20260503031530 | 46 | 0 | 0.0 | 0.9 | 0.00 | 0.00 | 0.00 | 66 | 1016.0 |
| 20260503030034 | 47 | 0 | 0.0 | 0.9 | 0.00 | 0.00 | 0.00 | 63 | 1015.7 |
| 20260503024529 | 47 | 0 | 0.0 | 1.7 | 0.00 | 0.00 | 0.00 | 64 | 1015.7 |
| 20260503023034 | 47 | 56 | 0.0 | 1.7 | 0.00 | 0.00 | 0.00 | 63 | 1015.5 |
| 20260503021531 | 48 | 0 | 0.0 | 0.9 | 0.00 | 0.00 | 0.00 | 62 | 1015.4 |
| 20260503020030 | 49 | 73 | 0.0 | 1.7 | 0.00 | 0.00 | 0.00 | 61 | 1015.3 |
| 20260503014529 | 50 | 0 | 0.0 | 3.5 | 0.00 | 0.00 | 0.00 | 58 | 1015.3 |
| 20260503013037 | 50 | 0 | 0.0 | 2.6 | 0.00 | 0.00 | 0.00 | 58 | 1015.1 |
| 20260503011533 | 49 | 0 | 0.0 | 0.9 | 0.00 | 0.00 | 0.00 | 62 | 1014.8 |
| 20260503010033 | 50 | 52 | 0.0 | 0.9 | 0.00 | 0.00 | 0.00 | 61 | 1014.7 |
| 20260503004555 | 51 | 0 | 0.0 | 0.9 | 0.00 | 0.00 | 0.00 | 55 | 1014.5 |
| 20260503003032 | 53 | 0 | 0.0 | 2.6 | 0.00 | 0.00 | 0.00 | 53 | 1014.1 |
| 20260503001530 | 54 | 0 | 0.0 | 2.6 | 0.00 | 0.00 | 0.00 | 48 | 1013.9 |
| 20260503000043 | 55 | 110 | 0.0 | 4.3 | 0.00 | 0.00 | 0.00 | 46 | 1013.6 |
| 20260502234531 | 57 | 5 | 0.9 | 6.1 | 0.00 | 0.00 | 0.00 | 44 | 1013.5 |
| 20260502233030 | 59 | 303 | 0.9 | 6.1 | 0.00 | 0.00 | 0.00 | 41 | 1013.1 |
| 20260502231531 | 59 | 96 | 0.9 | 5.2 | 0.00 | 0.00 | 0.00 | 43 | 1012.9 |
| 20260502230030 | 59 | 0 | 0.0 | 4.3 | 0.00 | 0.00 | 0.00 | 41 | 1012.8 |
| 20260502224532 | 59 | 34 | 1.7 | 8.7 | 0.00 | 0.00 | 0.00 | 39 | 1012.8 |
| 20260502223030 | 59 | 89 | 1.7 | 13.0 | 0.00 | 0.00 | 0.00 | 40 | 1012.5 |
| 20260502221534 | 60 | 121 | 1.7 | 6.1 | 0.00 | 0.00 | 0.00 | 39 | 1012.3 |
| 20260502220029 | 60 | 0 | 0.0 | 2.6 | 0.00 | 0.00 | 0.00 | 42 | 1012.0 |
| 20260502214532 | 60 | 89 | 0.9 | 3.5 | 0.00 | 0.00 | 0.00 | 41 | 1011.7 |
| 20260502213032 | 62 | 307 | 0.9 | 5.2 | 0.00 | 0.00 | 0.00 | 39 | 1011.4 |
| 20260502211529 | 63 | 82 | 0.9 | 4.3 | 0.00 | 0.00 | 0.00 | 38 | 1011.3 |
| 20260502210030 | 62 | 75 | 0.9 | 7.0 | 0.00 | 0.00 | 0.00 | 38 | 1011.3 |
| 20260502204530 | 64 | 127 | 1.7 | 7.0 | 0.00 | 0.00 | 0.00 | 37 | 1011.4 |
| 20260502203031 | 64 | 117 | 2.6 | 7.0 | 0.00 | 0.00 | 0.00 | 36 | 1011.4 |
| 20260502201535 | 65 | 174 | 1.7 | 7.8 | 0.00 | 0.00 | 0.00 | 34 | 1011.6 |